Dewpoint
59 60 60 60 60 60 60 61 60 60 60 61 61 61 61 61 61 61 61 61 60 59 59 58 57 56 56 56 55 55 54 54 52 52 52 50 49 49 48 47 44 41
59 59 59 60 60 60 59 60 60 60 60 61 61 61 61 60 60 60 60 59 58 57 57 57 56 55 55 55 55 54 52 51 50 50 50 49 47 47 46 44 42 40
59 59 59 59 59 60 60 60 60 60 60 61 61 61 61 60 60 60 59 57 55 55 55 55 54 54 54 54 54 51 50 49 49 49 48 47 45 44 44 43 40 40
59 59 59 59 60 60 60 60 60 60 60 61 61 61 60 60 59 59 58 54 55 53 53 53 52 53 53 52 51 49 49 49 48 45 44 43 42 42 41 39 39 38
59 58 59 59 60 60 60 60 60 60 60 61 60 60 59 58 58 57 55 54 53 53 52 52 53 52 52 50 49 49 49 46 43 43 41 39 39 39 39 38 37 35
58 58 58 59 59 59 60 60 60 60 61 60 60 59 58 57 56 55 53 52 52 51 50 51 51 51 50 49 49 48 45 41 41 40 38 38 38 38 38 37 36 34
59 59 59 59 59 60 60 60 60 60 60 60 58 58 57 55 54 53 52 51 50 49 49 49 49 49 48 47 45 42 39 39 39 38 37 35 35 36 36 35 34 32
59 59 60 60 60 60 60 60 60 60 59 58 57 56 55 54 53 52 50 49 49 48 47 47 48 47 43 42 40 39 38 39 38 36 33 33 33 33 34 35 33 31
59 59 59 59 59 60 59 59 59 58 57 57 55 54 53 53 52 51 49 48 47 46 46 44 43 41 40 39 38 38 37 38 36 33 31 30 31 32 33 32 30 30
58 58 58 58 58 58 57 57 56 56 56 55 54 53 52 51 51 50 48 47 46 45 44 42 40 39 38 38 37 36 36 35 33 32 31 30 30 31 32 30 29 29
55 56 56 56 57 57 55 54 53 53 52 52 50 50 50 49 48 47 47 47 46 45 44 40 39 38 37 36 36 35 34 33 32 30 29 29 29 30 31 30 29 28
52 53 54 55 55 54 53 52 50 50 50 48 49 49 46 46 46 45 45 45 45 44 42 40 37 36 35 34 33 32 32 31 31 30 30 30 29 29 30 29 29 28
50 50 51 51 51 50 49 48 48 46 46 46 45 45 44 44 42 43 43 44 43 41 40 38 36 35 34 33 31 30 29 29 29 29 29 28 28 29 29 29 28 28
48 47 47 47 46 44 44 43 43 43 44 43 43 43 43 43 43 43 42 42 40 39 38 36 34 33 31 31 30 29 29 28 28 28 28 28 28 28 28 28 28 28
45 43 43 42 41 42 41 41 41 41 41 41 41 42 42 42 42 42 41 40 38 38 37 34 33 32 31 29 29 29 28 28 28 27 26 26 26 26 26 27 27 27
42 41 41 40 40 40 40 40 40 40 40 40 40 40 40 40 40 40 40 38 37 35 34 34 32 32 30 31 31 28 28 28 28 26 25 25 25 24 24 25 25 26
40 40 40 40 40 39 39 39 39 39 39 39 39 39 39 39 39 38 38 38 35 33 32 33 32 30 31 32 32 32 28 26 25 25 25 24 23 22 23 23 23 24
39 39 39 39 39 39 38 38 38 38 38 38 38 37 37 37 37 37 36 35 34 33 31 30 29 31 33 33 33 33 29 25 25 25 25 22 21 20 21 21 21 22
38 38 38 37 38 38 37 37 37 37 37 36 37 37 36 36 36 36 34 33 31 30 29 28 28 33 33 35 34 34 32 27 25 25 22 21 20 20 20 19 20 20
37 37 37 37 37 36 36 36 36 37 37 36 36 35 35 35 34 33 32 30 29 27 27 27 28 32 36 35 35 34 32 30 25 25 22 20 19 19 19 18 19 19
37 37 37 36 36 36 36 36 36 36 35 35 34 34 34 34 33 32 30 29 27 26 25 26 28 34 35 34 34 33 32 29 25 24 21 20 19 18 18 18 18 19
37 37 36 35 35 35 35 35 35 35 34 34 33 33 33 32 31 31 30 29 27 26 26 25 29 35 34 34 33 32 30 26 23 21 20 19 18 18 18 18 18 18
37 37 36 35 34 34 34 34 34 34 33 32 32 32 32 31 31 30 30 29 29 27 26 27 31 33 34 33 33 31 27 25 24 24 22 19 18 18 17 17 18 18
37 36 35 34 34 34 34 34 33 33 32 32 32 31 31 31 30 30 30 30 29 28 28 28 30 32 33 33 32 30 28 25 24 23 23 22 19 18 17 17 19 25
37 36 35 34 34 34 34 33 33 32 32 31 31 31 31 30 30 29 29 30 29 29 29 29 30 31 33 33 31 30 26 26 24 25 23 22 21 19 18 18 20 23
36 35 34 34 34 33 33 33 33 32 31 30 30 30 29 29 28 30 30 30 30 30 29 29 29 30 32 32 31 29 28 26 25 23 24 23 21 21 20 20 20 21